TimeMDT,TemperatureF,Dew PointF,Humidity,Sea Level PressureIn,VisibilityMPH,Wind Direction,Wind SpeedMPH,Gust SpeedMPH,PrecipitationIn,Events,Conditions,WindDirDegrees,DateUTC
12:53 AM,28.9,12.9,51,29.72,10.0,Variable,3.5,-,N/A,,Clear,0,2012-10-21 06:53:00
1:53 AM,32.0,10.0,40,29.68,10.0,NE,3.5,-,N/A,,Clear,50,2012-10-21 07:53:00
2:53 AM,33.1,10.9,40,29.67,10.0,East,3.5,-,N/A,,Clear,100,2012-10-21 08:53:00
3:53 AM,28.9,10.9,47,29.72,10.0,Calm,Calm,-,N/A,,Clear,0,2012-10-21 09:53:00
4:53 AM,27.0,10.9,51,29.74,10.0,NE,4.6,-,N/A,,Clear,50,2012-10-21 10:53:00
5:53 AM,28.0,10.0,47,29.77,10.0,Calm,Calm,-,N/A,,Clear,0,2012-10-21 11:53:00
6:53 AM,26.1,10.9,53,29.82,10.0,Calm,Calm,-,N/A,,Clear,0,2012-10-21 12:53:00
7:53 AM,28.0,14.0,56,29.86,10.0,Calm,Calm,-,N/A,,Clear,0,2012-10-21 13:53:00
8:53 AM,37.0,15.1,41,29.81,10.0,Calm,Calm,-,N/A,,Clear,0,2012-10-21 14:53:00
9:53 AM,45.0,16.0,31,29.76,10.0,Calm,Calm,-,N/A,,Clear,0,2012-10-21 15:53:00
10:53 AM,48.0,14.0,26,29.77,10.0,SSE,4.6,-,N/A,,Clear,150,2012-10-21 16:53:00
11:53 AM,51.1,17.1,26,29.72,10.0,SSE,9.2,-,N/A,,Clear,160,2012-10-21 17:53:00
12:53 PM,52.0,18.0,26,29.74,10.0,South,5.8,-,N/A,,Clear,190,2012-10-21 18:53:00
1:53 PM,54.0,17.1,23,29.68,10.0,South,17.3,23.0,N/A,,Clear,170,2012-10-21 19:53:00
2:53 PM,55.0,16.0,22,29.65,10.0,South,12.7,20.7,N/A,,Clear,170,2012-10-21 20:53:00
3:53 PM,55.0,12.9,19,29.69,10.0,WSW,6.9,-,N/A,,Clear,240,2012-10-21 21:53:00
4:53 PM,54.0,17.1,23,29.71,10.0,South,13.8,-,N/A,,Clear,190,2012-10-21 22:53:00
5:53 PM,51.1,17.1,26,29.75,10.0,West,4.6,-,N/A,,Clear,280,2012-10-21 23:53:00
6:53 PM,42.1,18.0,38,29.84,10.0,ENE,5.8,-,N/A,,Clear,60,2012-10-22 00:53:00
7:53 PM,37.9,18.0,45,29.87,10.0,NE,6.9,-,N/A,,Clear,40,2012-10-22 01:53:00
8:53 PM,37.9,18.0,45,29.81,10.0,NE,5.8,-,N/A,,Clear,50,2012-10-22 02:53:00
9:53 PM,37.9,19.0,47,29.78,10.0,NNE,5.8,-,N/A,,Overcast,30,2012-10-22 03:53:00
10:53 PM,39.0,19.0,45,29.74,10.0,Calm,Calm,-,N/A,,Partly Cloudy,0,2012-10-22 04:53:00
11:53 PM,32.0,19.0,59,29.77,10.0,Calm,Calm,-,N/A,,Clear,0,2012-10-22 05:53:00